Location: Madrid
(40.4000°N, 3.6830°W)
Time: 01:24:15
(UTC+02:00)

ISS - Pass Details

Date: 20 July 2019
Orbit: 409 x 418 km, 51.6° (Epoch: 23 July)

Event Time Altitude Azimuth Distance (km) Brightness Sun altitude
Rises 01:24:34 0° 300° (WNW) 2,351 0.7 -27.4°
Reaches altitude 10° 01:27:45 10° 333° (NNW) 1,486 0.0 -27.6°
Maximum altitude 01:29:08 12° 358° (N) 1,367 -0.3 -27.7°
Drops below altitude 10° 01:30:31 10° 22° (NNE) 1,484 -0.3 -27.7°
Sets 01:33:42 0° 56° (NE) 2,344 0.3 -27.9°
